Weather History for KHNZ - March, 2014

Change the Weather History Date:

Monday, March 31, 2014

  Actual Average (KTDF) Record (KTDF)
Temperature  
Mean Temperature 56 °F -  
Max Temperature 70 °F 66 °F 87 °F (1985)
Min Temperature 42 °F 41 °F 21 °F (1964)
Degree Days  
Heating Degree Days 9    
Growing Degree Days 6 (Base 50)    
Moisture  
Dew Point 21 °F    
Average Humidity 29    
Maximum Humidity 55    
Minimum Humidity 13    
Precipitation  
Precipitation 0.00 in - - ()
Sea Level Pressure  
Sea Level Pressure 30.03 in    
Wind  
Wind Speed 7 mph (NW)    
Max Wind Speed 12 mph    
Max Gust Speed 21 mph    
Visibility 10 miles    
Events      
Averages and records for this station are not official NWS values.
T = Trace of Precipitation, MM = Missing Value Source: NWS Daily Summary

Daily Weather History Graph

Daily Weather History Graph

Search for Another Location

Airport or City:

Trip Planner

Search our weather history database for the weather conditions in past years. The results will help you decide how hot, cold, wet, or windy it might be!

Date:

Astronomy

Mar. 31, 2014 Rise Set
Actual Time 7:01 AM EDT 7:35 PM EDT
Civil Twilight 6:35 AM EDT 8:01 PM EDT
Nautical Twilight 6:05 AM EDT 8:31 PM EDT
Astronomical Twilight 5:34 AM EDT 9:03 PM EDT
Moon 7:25 AM EDT (3/31) 8:49 PM EDT (3/31)
Length of Visible Light 13h 25m
Length of Day
12h 33m
New Moon, 1% of the Moon is Illuminated
Mar 31
New Moon
Apr 7
First Quarter
Apr 15
Full
Apr 22
Last Quarter
Apr 29
New

Hourly Weather History & Observations

Time (EDT) Temp. Windchill Dew Point Humidity Pressure Visibility Wind Dir Wind Speed Gust Speed Precip Events Conditions
12:15 AM 46.4 °F 42.4 °F 24.8 °F 43% 29.91 in 10.0 mi WNW 8.1 mph - N/A   Clear
12:35 AM 46.4 °F 42.4 °F 23.9 °F 41% 29.91 in 10.0 mi WNW 8.1 mph 16.1 mph N/A   Clear
12:55 AM 46.4 °F 42.9 °F 23.2 °F 40% 29.92 in 10.0 mi WNW 6.9 mph - N/A   Clear
1:15 AM 46.4 °F 43.5 °F 22.6 °F 39% 29.92 in 10.0 mi WNW 5.8 mph 16.1 mph N/A   Clear
1:35 AM 45.9 °F 41.7 °F 22.1 °F 39% 29.93 in 10.0 mi NW 8.1 mph - N/A   Clear
1:55 AM 45.5 °F 40.8 °F 21.9 °F 39% 29.93 in 10.0 mi WNW 9.2 mph - N/A   Clear
2:15 AM 45.5 °F 40.8 °F 21.2 °F 38% 29.93 in 10.0 mi NW 9.2 mph - N/A   Clear
2:35 AM 45.7 °F 42.0 °F 20.5 °F 37% 29.93 in 10.0 mi NW 6.9 mph 16.1 mph N/A   Clear
2:55 AM 45.3 °F 42.3 °F 20.5 °F 37% 29.93 in 10.0 mi NW 5.8 mph - N/A   Clear
3:15 AM 44.8 °F 41.0 °F 20.3 °F 38% 29.93 in 10.0 mi NW 6.9 mph - N/A   Clear
3:35 AM 44.6 °F 41.4 °F 20.3 °F 38% 29.94 in 10.0 mi WNW 5.8 mph - N/A   Clear
3:55 AM 44.4 °F 41.2 °F 20.1 °F 38% 29.94 in 10.0 mi NW 5.8 mph - N/A   Clear
4:15 AM 43.9 °F 41.3 °F 20.1 °F 39% 29.94 in 10.0 mi WNW 4.6 mph - N/A   Clear
4:35 AM 43.3 °F 39.9 °F 20.3 °F 40% 29.95 in 10.0 mi WNW 5.8 mph - N/A   Clear
4:55 AM 42.8 °F 38.6 °F 20.3 °F 41% 29.96 in 10.0 mi WNW 6.9 mph - N/A   Clear
5:15 AM 42.3 °F 39.4 °F 20.7 °F 42% 29.96 in 10.0 mi West 4.6 mph - N/A   Clear
5:35 AM 42.1 °F 37.1 °F 21.0 °F 43% 29.97 in 10.0 mi West 8.1 mph - N/A   Clear
5:55 AM 42.4 °F 37.5 °F 20.8 °F 42% 29.97 in 10.0 mi WNW 8.1 mph - N/A   Clear
6:15 AM 42.6 °F 38.4 °F 20.8 °F 42% 29.98 in 10.0 mi WNW 6.9 mph - N/A   Clear
6:35 AM 42.4 °F 38.1 °F 20.8 °F 42% 30.00 in 10.0 mi WNW 6.9 mph - N/A   Clear
6:55 AM 42.4 °F 37.0 °F 21.0 °F 43% 30.01 in 10.0 mi WNW 9.2 mph 16.1 mph N/A   Clear
7:15 AM 42.8 °F 38.0 °F 20.7 °F 41% 30.02 in 10.0 mi WNW 8.1 mph - N/A   Clear
7:35 AM 43.3 °F 38.1 °F 20.7 °F 40% 30.03 in 10.0 mi WNW 9.2 mph - N/A   Clear
7:55 AM 44.6 °F 39.2 °F 20.5 °F 38% 30.04 in 10.0 mi WNW 10.4 mph 17.3 mph N/A   Clear
8:15 AM 46.0 °F 41.0 °F 19.8 °F 35% 30.05 in 10.0 mi WNW 10.4 mph 17.3 mph N/A   Clear
8:35 AM 47.7 °F - 19.4 °F 33% 30.05 in 10.0 mi NW 9.2 mph - N/A   Clear
8:55 AM 48.9 °F - 19.4 °F 31% 30.05 in 10.0 mi NNW 9.2 mph 19.6 mph N/A   Clear
9:15 AM 50.5 °F - 19.9 °F 30% 30.06 in 10.0 mi NW 9.2 mph - N/A   Clear
9:35 AM 52.3 °F - 19.9 °F 28% 30.07 in 10.0 mi NNW 10.4 mph 17.3 mph N/A   Clear
9:55 AM 53.6 °F - 19.8 °F 27% 30.07 in 10.0 mi NNW 10.4 mph 17.3 mph N/A   Clear
10:15 AM 54.5 °F - 18.7 °F 25% 30.07 in 10.0 mi NW 10.4 mph 16.1 mph N/A   Clear
10:35 AM 55.8 °F - 18.9 °F 24% 30.07 in 10.0 mi NNW 9.2 mph 17.3 mph N/A   Clear
10:55 AM 57.6 °F - 17.2 °F 21% 30.07 in 10.0 mi North 10.4 mph 20.7 mph N/A   Clear
11:10 AM 58.1 °F - 16.7 °F 20% 30.08 in 10.0 mi NNW 8.1 mph 19.6 mph N/A   Clear
11:35 AM 59.7 °F - 17.4 °F 19% 30.08 in 10.0 mi NW 8.1 mph 17.3 mph N/A   Clear
11:55 AM 60.4 °F - 17.2 °F 19% 30.08 in 10.0 mi NW 10.4 mph 18.4 mph N/A   Clear
12:15 PM 60.8 °F - 17.1 °F 18% 30.07 in 10.0 mi NNW 10.4 mph - N/A   Clear
12:35 PM 62.6 °F - 18.3 °F 18% 30.07 in 10.0 mi NNW 6.9 mph 16.1 mph N/A   Clear
12:55 PM 62.1 °F - 16.2 °F 17% 30.07 in 10.0 mi North 11.5 mph 19.6 mph N/A   Clear
1:15 PM 63.7 °F - 16.9 °F 16% 30.07 in 10.0 mi NW 10.4 mph - N/A   Clear
1:35 PM 63.9 °F - 15.4 °F 15% 30.07 in 10.0 mi NNW 9.2 mph - N/A   Clear
1:55 PM 65.3 °F - 18.0 °F 16% 30.07 in 10.0 mi Calm Calm - N/A   Clear
2:15 PM 66.7 °F - 17.8 °F 15% 30.06 in 10.0 mi WNW 6.9 mph - N/A   Clear
2:35 PM 66.9 °F - 16.2 °F 14% 30.05 in 10.0 mi NNW 9.2 mph - N/A   Clear
2:55 PM 68.5 °F - 17.4 °F 14% 30.06 in 10.0 mi NW 4.6 mph - N/A   Clear
3:15 PM 69.1 °F - 17.6 °F 14% 30.06 in 10.0 mi WNW 4.6 mph - N/A   Clear
3:35 PM 69.8 °F - 17.1 °F 13% 30.05 in 10.0 mi NNW 8.1 mph - N/A   Clear
3:55 PM 69.8 °F - 17.1 °F 13% 30.05 in 10.0 mi North 5.8 mph - N/A   Clear
4:15 PM 69.8 °F - 16.5 °F 13% 30.05 in 10.0 mi NNW 8.1 mph - N/A   Clear
4:35 PM 70.7 °F - 17.4 °F 13% 30.05 in 10.0 mi North 8.1 mph 11.5 mph N/A   Clear
4:55 PM 70.3 °F - 18.0 °F 14% 30.04 in 10.0 mi Calm Calm - N/A   Clear
5:15 PM 70.3 °F - 16.7 °F 13% 30.04 in 10.0 mi NW 5.8 mph - N/A   Clear
5:35 PM 70.2 °F - 17.6 °F 14% 30.04 in 10.0 mi North 8.1 mph - N/A   Clear
5:55 PM 70.0 °F - 17.6 °F 14% 30.04 in 10.0 mi NNW 6.9 mph - N/A   Clear
6:15 PM 69.8 °F - 18.1 °F 14% 30.04 in 10.0 mi NNW 4.6 mph - N/A   Clear
6:35 PM 68.9 °F - 17.8 °F 14% 30.04 in 10.0 mi Calm Calm - N/A   Clear
6:55 PM 67.5 °F - 18.1 °F 15% 30.04 in 10.0 mi Calm Calm - N/A   Clear
7:15 PM 65.7 °F - 20.5 °F 18% 30.04 in 10.0 mi Calm Calm - N/A   Clear
7:35 PM 65.3 °F - 19.9 °F 18% 30.05 in 10.0 mi Calm Calm - N/A   Clear
7:55 PM 63.9 °F - 21.0 °F 19% 30.05 in 10.0 mi Calm Calm - N/A   Clear
8:15 PM 62.8 °F - 21.4 °F 20% 30.06 in 10.0 mi Calm Calm - N/A   Clear
8:35 PM 60.3 °F - 23.5 °F 24% 30.07 in 10.0 mi Calm Calm - N/A   Clear
8:55 PM 60.8 °F - 21.7 °F 22% 30.07 in 10.0 mi Calm Calm - N/A   Clear
9:15 PM 55.2 °F - 28.6 °F 36% 30.07 in 10.0 mi Calm Calm - N/A   Clear
9:35 PM 55.2 °F - 25.9 °F 32% 30.08 in 10.0 mi Calm Calm - N/A   Clear
9:55 PM 58.1 °F - 23.7 °F 27% 30.08 in 10.0 mi Calm Calm - N/A   Clear
10:15 PM 51.6 °F - 31.5 °F 46% 30.08 in 10.0 mi Calm Calm - N/A   Clear
10:35 PM 51.3 °F - 30.0 °F 44% 30.08 in 10.0 mi Calm Calm - N/A   Clear
10:55 PM 48.4 °F - 32.7 °F 55% 30.09 in 10.0 mi Calm Calm - N/A   Clear
11:15 PM 50.7 °F - 30.0 °F 45% 30.09 in 10.0 mi Calm Calm - N/A   Clear
11:35 PM 50.5 °F - 29.7 °F 45% 30.09 in 10.0 mi Calm Calm - N/A   Clear
11:55 PM 52.5 °F - 26.6 °F 37% 30.10 in 10.0 mi Calm Calm - N/A   Clear